Thunderstorms From: 26-05-2018 05:06 Until: 27-05-2018 05:00 warning for: Thunderstorms Level: Yellow info button

Although rather usual in this region, locally or potentially dangerous phenomena are expected. (such as local winds, summer thunderstorms, rising streams or high waves) Be aware and pay attention to the latest weather updates, especially if you carry out activities exposed to weather or close to a stream or shoreline. 


Meteo18 Weather Cam more information Meteo18 Weather Cam


warning for Thunderstorms more information blitzortung!


Rain radar more information rain snow radar


Visit our other weather sites:

Template documentation
and downloads

And another site



Weather Underground History page Text

Daily Summary for January 15, 2018 Units:  English    Metric   Both
« Previous Day
Next Day »
Daily Weekly Monthly Yearly Custom
  High: Low: Average:
Temperature: TemperatureC °F 4.2 °F 6.4 °F
Dew Point: DewpointC °F 3.0 °F 5.1 °F
Humidity: Humidity % 85 % 91 %
Wind Speed: WindSpeedKMH mph 0.0 mph 15.3 mph
Wind Gust: WindSpeedGustKMH mph - -
Wind:- - SW
Pressure: PressurehPa in 1007.3 in -
Precipitation: 9.4 in    
Historical Graphs
 
 
Tabular Data for January 15, 2018
Time Temperature Dew Point Pressure Wind Wind Speed Wind Gust Humidity Rainfall Rate (Hourly)
TemperatureC °F DewpointC °F PressurehPa in Calm     Humidity % HourlyPrecipMM in
00:03 5.1 °F 3.9 °F 1020.2 in Calm     92 % 0.0 in
00:15 5.1 °F 3.9 °F 1020.2 in Calm     92 % 0.0 in
00:21 5.1 °F 4.1 °F 1020.2 in Calm     93 % 0.0 in
00:33 4.9 °F 3.9 °F 1020.2 in Calm     93 % 0.0 in
00:39 4.8 °F 3.8 °F 1020.2 in Calm     93 % 0.0 in
00:51 4.9 °F 3.9 °F 1020.2 in Calm     93 % 0.0 in
00:57 4.9 °F 3.9 °F 1020.5 in Calm     93 % 0.0 in
01:04 4.8 °F 3.8 °F 1020.2 in Calm     93 % 0.0 in
01:10 4.8 °F 3.8 °F 1020.2 in Calm     93 % 0.0 in
01:16 4.8 °F 3.8 °F 1020.2 in Calm     93 % 0.0 in
01:22 4.7 °F 3.8 °F 1020.2 in Calm     94 % 0.0 in
01:28 4.7 °F 3.8 °F 1020.2 in Calm     94 % 0.0 in
01:34 4.6 °F 3.7 °F 1020.2 in Calm     94 % 0.0 in
01:40 4.6 °F 3.7 °F 1020.2 in Calm     94 % 0.0 in
01:46 4.6 °F 3.7 °F 1020.2 in Calm     94 % 0.0 in
01:52 4.7 °F 4.0 °F 1020.2 in Calm     95 % 0.0 in
01:58 4.9 °F 4.2 °F 1020.2 in Calm     95 % 0.0 in
02:04 5.2 °F 4.5 °F 1020.2 in Calm     95 % 0.0 in
02:10 5.2 °F 4.3 °F 1020.2 in Calm     94 % 0.0 in
02:22 4.9 °F 4.0 °F 1020.2 in Calm     94 % 0.0 in
02:28 4.9 °F 4.0 °F 1019.9 in West 1.4 mph 3.2 mph 94 % 0.0 in
02:34 5.1 °F 4.4 °F 1019.9 in WSW 4.7 mph 6.4 mph 95 % 0.0 in
02:40 5.4 °F 4.5 °F 1019.9 in WSW 3.2 mph 9.7 mph 94 % 0.0 in
02:46 5.8 °F 4.8 °F 1019.9 in SW 3.2 mph 11.3 mph 93 % 0.0 in
02:53 6.0 °F 4.6 °F 1019.9 in WSW 13.0 mph 13.0 mph 91 % 0.0 in
02:59 6.1 °F 4.7 °F 1019.9 in WSW 11.1 mph 14.5 mph 91 % 0.0 in
03:05 6.1 °F 4.7 °F 1019.9 in WSW 14.3 mph 16.1 mph 91 % 0.0 in
03:11 5.9 °F 4.5 °F 1019.9 in WSW 11.1 mph 20.9 mph 91 % 0.0 in
03:17 5.8 °F 4.4 °F 1019.5 in WSW 14.3 mph 19.3 mph 91 % 0.0 in
03:27 5.6 °F 4.4 °F 1019.5 in West 4.7 mph 16.1 mph 92 % 0.0 in
03:33 5.6 °F 4.4 °F 1019.5 in SW 13.0 mph 19.3 mph 92 % 0.0 in
03:45 5.6 °F 4.1 °F 1019.5 in WSW 19.5 mph 19.5 mph 90 % 0.0 in
03:51 5.6 °F 4.1 °F 1019.5 in WSW 11.1 mph 17.7 mph 90 % 0.0 in
03:57 5.5 °F 4.0 °F 1019.5 in WSW 9.7 mph 16.1 mph 90 % 0.0 in
04:03 5.4 °F 3.9 °F 1019.5 in WSW 7.9 mph 16.1 mph 90 % 0.0 in
04:09 5.3 °F 3.8 °F 1019.5 in WSW 6.4 mph 14.5 mph 90 % 0.0 in
04:15 5.3 °F 3.8 °F 1019.2 in SW 9.7 mph 16.1 mph 90 % 0.0 in
04:21 5.2 °F 3.7 °F 1019.2 in SW 13.0 mph 16.1 mph 90 % 0.0 in
04:33 5.1 °F 3.6 °F 1019.2 in NW 4.7 mph 12.9 mph 90 % 0.0 in
04:39 5.1 °F 3.6 °F 1019.2 in South 6.4 mph 14.5 mph 90 % 0.0 in
04:47 5.2 °F 3.7 °F 1019.2 in SW 9.7 mph 12.9 mph 90 % 0.0 in
04:53 5.1 °F 3.6 °F 1019.2 in SW 3.2 mph 11.3 mph 90 % 0.0 in
04:59 5.0 °F 3.5 °F 1019.2 in SW 6.4 mph 6.4 mph 90 % 0.0 in
05:05 4.8 °F 3.5 °F 1018.8 in SW 11.1 mph 11.3 mph 91 % 0.0 in
05:11 4.8 °F 3.5 °F 1018.8 in SSW 7.9 mph 9.7 mph 91 % 0.0 in
05:19 4.6 °F 3.3 °F 1018.8 in SSW 4.7 mph 6.4 mph 91 % 0.0 in
05:25 4.4 °F 3.2 °F 1018.8 in SSW 6.4 mph 9.7 mph 92 % 0.0 in
05:31 4.4 °F 3.2 °F 1018.8 in South 4.7 mph 9.7 mph 92 % 0.0 in
05:43 4.6 °F 3.4 °F 1018.8 in SW 9.7 mph 11.3 mph 92 % 0.0 in
05:49 4.7 °F 3.4 °F 1018.8 in SW 6.4 mph 8.0 mph 91 % 0.0 in
05:55 4.6 °F 3.3 °F 1018.8 in SSW 3.2 mph 4.8 mph 91 % 0.0 in
06:01 4.4 °F 3.1 °F 1018.8 in SSW 3.2 mph 4.8 mph 91 % 0.0 in
06:07 4.3 °F 3.1 °F 1018.8 in SSW 4.7 mph 8.0 mph 92 % 0.0 in
06:13 4.3 °F 3.1 °F 1018.8 in SSW 4.7 mph 8.0 mph 92 % 0.0 in
06:19 4.2 °F 3.0 °F 1018.8 in SSW 6.4 mph 9.7 mph 92 % 0.0 in
06:25 4.2 °F 3.0 °F 1018.8 in SSW 7.9 mph 8.0 mph 92 % 0.0 in
06:31 4.2 °F 3.0 °F 1018.5 in SSW 1.4 mph 6.4 mph 92 % 0.0 in
06:37 4.2 °F 3.0 °F 1018.8 in SSW 1.4 mph 6.4 mph 92 % 0.0 in
06:43 4.2 °F 3.0 °F 1018.8 in SSW 3.2 mph 4.8 mph 92 % 0.0 in
06:49 4.2 °F 3.0 °F 1018.8 in South 4.7 mph 4.8 mph 92 % 0.0 in
06:55 4.2 °F 3.0 °F 1018.5 in SSW 3.2 mph 4.8 mph 92 % 0.0 in
07:01 4.2 °F 3.0 °F 1018.5 in SSW 1.4 mph 4.8 mph 92 % 0.0 in
07:07 4.2 °F 3.0 °F 1018.5 in SSW 1.4 mph 3.2 mph 92 % 0.0 in
07:13 4.3 °F 3.1 °F 1018.8 in SW 3.2 mph 8.0 mph 92 % 0.0 in
07:19 4.6 °F 3.3 °F 1018.8 in WSW 13.0 mph 14.5 mph 91 % 0.0 in
07:31 4.9 °F 3.2 °F 1018.8 in SSW 9.7 mph 19.3 mph 89 % 0.0 in
07:37 5.1 °F 3.3 °F 1019.2 in SSW 11.1 mph 19.3 mph 88 % 0.0 in
07:43 5.2 °F 3.4 °F 1018.8 in SW 13.0 mph 16.1 mph 88 % 0.0 in
07:53 5.3 °F 3.5 °F 1019.2 in SW 6.4 mph 12.9 mph 88 % 0.0 in
07:59 5.4 °F 3.6 °F 1019.2 in SSW 7.9 mph 17.7 mph 88 % 0.0 in
08:05 5.4 °F 3.6 °F 1018.8 in SSW 6.4 mph 14.5 mph 88 % 0.0 in
08:11 5.2 °F 3.5 °F 1018.8 in SSW 6.4 mph 8.0 mph 89 % 0.0 in
08:19 5.1 °F 3.6 °F 1018.8 in SW 9.7 mph 12.9 mph 90 % 0.0 in
08:25 5.1 °F 3.6 °F 1018.5 in SSW 11.1 mph 12.9 mph 90 % 0.0 in
08:33 5.1 °F 3.6 °F 1018.2 in SSW 9.7 mph 16.1 mph 90 % 0.0 in
08:39 5.1 °F 3.4 °F 1018.5 in SW 7.9 mph 14.5 mph 89 % 0.0 in
08:45 5.2 °F 3.5 °F 1018.5 in SSW 16.3 mph 20.9 mph 89 % 0.0 in
08:51 5.3 °F 3.5 °F 1018.5 in South 19.5 mph 22.5 mph 88 % 0.0 in
09:01 5.2 °F 3.5 °F 1018.2 in SSW 11.1 mph 17.7 mph 89 % 0.0 in
09:07 5.3 °F 3.6 °F 1018.2 in SSW 7.9 mph 17.7 mph 89 % 0.0 in
09:13 5.4 °F 3.7 °F 1018.2 in SW 9.7 mph 22.5 mph 89 % 0.0 in
09:19 5.6 °F 3.8 °F 1018.2 in SSW 20.9 mph 22.5 mph 88 % 0.0 in
09:27 5.7 °F 3.9 °F 1017.8 in SW 14.3 mph 24.1 mph 88 % 0.0 in
09:33 5.7 °F 3.9 °F 1017.8 in SSW 22.7 mph 24.1 mph 88 % 0.0 in
09:39 5.8 °F 3.8 °F 1017.5 in SSW 20.9 mph 27.4 mph 87 % 0.0 in
09:51 5.8 °F 4.0 °F 1017.5 in SW 14.3 mph 20.9 mph 88 % 0.0 in
09:57 5.8 °F 4.0 °F 1017.5 in SW 20.9 mph 27.4 mph 88 % 0.0 in
10:03 5.9 °F 3.9 °F 1017.2 in SSW 19.5 mph 20.9 mph 87 % 0.0 in
10:09 6.0 °F 4.0 °F 1017.2 in SSW 11.1 mph 22.5 mph 87 % 0.0 in
10:15 6.1 °F 4.1 °F 1016.8 in SSW 25.9 mph 25.9 mph 87 % 0.0 in
10:21 6.1 °F 4.1 °F 1016.8 in SSW 17.7 mph 24.1 mph 87 % 0.0 in
10:27 6.2 °F 4.2 °F 1016.8 in SSW 14.3 mph 20.9 mph 87 % 0.0 in
10:33 6.2 °F 4.2 °F 1016.8 in SSW 14.3 mph 25.7 mph 87 % 0.0 in
10:39 6.3 °F 4.1 °F 1016.8 in South 16.3 mph 17.7 mph 86 % 0.0 in
10:45 6.3 °F 4.1 °F 1016.5 in SSW 11.1 mph 20.9 mph 86 % 0.0 in
10:51 6.4 °F 4.2 °F 1016.5 in SW 25.9 mph 27.4 mph 86 % 0.0 in
10:57 6.4 °F 4.2 °F 1016.5 in SW 19.5 mph 29.0 mph 86 % 0.0 in
11:03 6.5 °F 4.3 °F 1016.8 in SSW 14.3 mph 27.4 mph 86 % 0.0 in
11:27 6.6 °F 4.4 °F 1016.5 in SW 19.5 mph 25.7 mph 86 % 0.0 in
11:37 6.6 °F 4.4 °F 1016.5 in SW 25.9 mph 32.2 mph 86 % 0.0 in
11:47 6.7 °F 4.4 °F 1016.5 in SW 17.7 mph 27.4 mph 85 % 0.0 in
11:53 6.8 °F 4.5 °F 1016.5 in SW 27.4 mph 29.0 mph 85 % 0.0 in
11:59 6.7 °F 4.5 °F 1016.1 in WSW 11.1 mph 25.7 mph 86 % 0.0 in
12:05 6.7 °F 4.5 °F 1016.1 in SW 13.0 mph 25.7 mph 86 % 0.0 in
12:11 6.7 °F 4.5 °F 1016.1 in WSW 7.9 mph 20.9 mph 86 % 0.0 in
12:17 6.8 °F 4.6 °F 1016.1 in SW 24.1 mph 24.1 mph 86 % 0.0 in
12:25 6.8 °F 4.6 °F 1015.8 in SSW 14.3 mph 27.4 mph 86 % 0.0 in
12:31 6.8 °F 4.6 °F 1015.8 in WSW 14.3 mph 33.8 mph 86 % 0.0 in
12:37 6.9 °F 4.7 °F 1015.8 in SW 25.9 mph 25.9 mph 86 % 0.0 in
12:43 7.0 °F 4.8 °F 1015.5 in SW 9.7 mph 27.4 mph 86 % 0.0 in
12:51 7.1 °F 4.9 °F 1015.1 in SW 9.7 mph 24.1 mph 86 % 0.0 in
13:03 7.1 °F 4.9 °F 1015.1 in SW 19.5 mph 22.5 mph 86 % 0.0 in
13:09 7.2 °F 5.0 °F 1014.8 in SW 22.7 mph 30.6 mph 86 % 0.0 in
13:15 7.2 °F 5.2 °F 1014.8 in SW 14.3 mph 29.0 mph 87 % 0.0 in
13:21 7.2 °F 5.0 °F 1014.8 in SW 19.5 mph 29.0 mph 86 % 0.0 in
13:27 7.2 °F 5.0 °F 1014.4 in WSW 17.7 mph 22.5 mph 86 % 0.0 in
13:34 7.2 °F 5.2 °F 1014.4 in SW 20.9 mph 24.1 mph 87 % 0.0 in
13:39 7.1 °F 5.1 °F 1014.1 in SSW 20.9 mph 25.7 mph 87 % 0.0 in
13:45 7.2 °F 5.2 °F 1014.1 in SW 20.9 mph 25.7 mph 87 % 0.0 in
13:51 7.2 °F 5.2 °F 1014.1 in SW 22.7 mph 30.6 mph 87 % 0.0 in
13:58 7.2 °F 5.3 °F 1013.4 in SW 27.4 mph 33.8 mph 88 % 0.0 in
14:04 7.3 °F 5.4 °F 1013.4 in SSW 22.7 mph 30.6 mph 88 % 0.0 in
14:10 7.3 °F 5.3 °F 1013.4 in SW 17.7 mph 33.8 mph 87 % 0.0 in
14:16 7.4 °F 5.4 °F 1013.1 in WSW 24.1 mph 32.2 mph 87 % 0.0 in
14:22 7.4 °F 5.4 °F 1012.8 in SSW 22.7 mph 40.2 mph 87 % 0.0 in
14:28 7.2 °F 5.3 °F 1012.1 in SW 17.7 mph 38.6 mph 88 % 0.0 in
14:34 7.2 °F 5.3 °F 1011.7 in SW 22.7 mph 40.2 mph 88 % 0.0 in
14:44 7.1 °F 5.4 °F 1011.7 in SW 27.4 mph 40.2 mph 89 % 0.0 in
14:50 7.1 °F 5.4 °F 1011.4 in SSW 32.0 mph 33.8 mph 89 % 0.0 in
14:56 7.1 °F 5.4 °F 1011.4 in South 19.5 mph 41.8 mph 89 % 0.3 in
15:02 7.1 °F 5.4 °F 1011.4 in SSW 30.6 mph 40.2 mph 89 % 0.3 in
15:08 7.1 °F 5.6 °F 1010.7 in SSW 22.7 mph 37.0 mph 90 % 0.3 in
15:14 7.1 °F 5.4 °F 1010.7 in SW 24.1 mph 35.4 mph 89 % 0.3 in
15:20 7.2 °F 5.5 °F 1010.7 in SSW 25.9 mph 37.0 mph 89 % 0.3 in
15:26 7.2 °F 5.5 °F 1010.7 in SSW 13.0 mph 38.6 mph 89 % 0.3 in
15:40 6.9 °F 5.5 °F 1010.4 in SSW 19.5 mph 32.2 mph 91 % 0.5 in
15:46 6.9 °F 5.5 °F 1010.4 in SW 20.9 mph 37.0 mph 91 % 0.5 in
15:52 6.8 °F 5.6 °F 1010.0 in SW 19.5 mph 38.6 mph 92 % 0.5 in
15:58 6.8 °F 5.6 °F 1009.7 in SSW 33.8 mph 37.0 mph 92 % 1.0 in
16:04 6.8 °F 5.7 °F 1009.7 in SSW 22.7 mph 38.6 mph 93 % 1.3 in
16:10 6.8 °F 5.7 °F 1009.7 in SSW 25.9 mph 40.2 mph 93 % 1.3 in
16:18 6.8 °F 5.7 °F 1009.4 in SW 35.2 mph 43.4 mph 93 % 1.5 in
16:24 6.8 °F 5.7 °F 1009.0 in SSW 20.9 mph 41.8 mph 93 % 1.5 in
16:30 6.8 °F 5.7 °F 1009.0 in SSW 30.6 mph 33.8 mph 93 % 1.8 in
16:36 6.8 °F 5.7 °F 1009.0 in SW 20.9 mph 41.8 mph 93 % 1.8 in
16:44 6.8 °F 5.9 °F 1009.0 in SW 30.6 mph 43.4 mph 94 % 2.0 in
16:56 6.8 °F 5.9 °F 1008.7 in SSW 17.7 mph 35.4 mph 94 % 1.8 in
17:02 6.7 °F 5.8 °F 1008.7 in South 30.6 mph 35.4 mph 94 % 1.8 in
17:08 6.7 °F 5.8 °F 1008.7 in South 27.4 mph 35.4 mph 94 % 1.8 in
17:14 6.8 °F 5.9 °F 1008.4 in SSW 35.2 mph 38.6 mph 94 % 1.5 in
17:20 6.8 °F 5.7 °F 1008.4 in SSW 27.4 mph 38.6 mph 93 % 1.5 in
17:26 6.9 °F 5.8 °F 1008.4 in SSW 27.4 mph 38.6 mph 93 % 1.5 in
17:32 6.9 °F 5.7 °F 1008.4 in SW 30.6 mph 37.0 mph 92 % 1.3 in
17:38 7.0 °F 5.8 °F 1008.4 in SSW 25.9 mph 35.4 mph 92 % 1.0 in
17:48 7.1 °F 5.7 °F 1008.0 in SW 22.7 mph 41.8 mph 91 % 1.3 in
17:54 7.1 °F 5.7 °F 1008.4 in SW 32.0 mph 41.8 mph 91 % 1.3 in
18:00 7.1 °F 5.7 °F 1008.4 in SW 27.4 mph 40.2 mph 91 % 1.3 in
18:06 7.1 °F 5.9 °F 1008.4 in WSW 25.9 mph 38.6 mph 92 % 1.3 in
18:12 7.0 °F 5.8 °F 1008.0 in SW 16.3 mph 37.0 mph 92 % 1.5 in
18:22 7.0 °F 5.9 °F 1008.0 in SW 24.1 mph 32.2 mph 93 % 1.5 in
18:28 7.0 °F 5.9 °F 1008.0 in SW 19.5 mph 33.8 mph 93 % 1.5 in
18:34 7.1 °F 6.0 °F 1008.0 in WSW 24.1 mph 30.6 mph 93 % 1.5 in
18:40 7.1 °F 6.0 °F 1007.7 in SW 22.7 mph 27.4 mph 93 % 1.5 in
18:46 7.2 °F 6.1 °F 1007.7 in SW 24.1 mph 35.4 mph 93 % 1.5 in
18:52 7.2 °F 6.1 °F 1007.7 in SW 24.1 mph 37.0 mph 93 % 1.5 in
18:58 7.3 °F 6.2 °F 1007.7 in WSW 16.3 mph 35.4 mph 93 % 1.3 in
19:10 7.3 °F 6.4 °F 1007.7 in WSW 17.7 mph 40.2 mph 94 % 0.5 in
19:16 7.3 °F 6.4 °F 1007.7 in SW 17.7 mph 33.8 mph 94 % 0.5 in
19:22 7.4 °F 6.5 °F 1007.7 in SW 32.0 mph 38.6 mph 94 % 0.5 in
19:28 7.4 °F 6.5 °F 1007.7 in WSW 27.4 mph 29.0 mph 94 % 0.5 in
19:40 7.4 °F 6.5 °F 1007.7 in SW 30.6 mph 40.2 mph 94 % 0.5 in
19:46 7.5 °F 6.6 °F 1007.7 in WSW 17.7 mph 35.4 mph 94 % 0.5 in
19:52 7.5 °F 6.8 °F 1007.7 in West 9.7 mph 29.0 mph 95 % 0.5 in
19:58 7.5 °F 6.8 °F 1007.7 in SW 30.6 mph 30.6 mph 95 % 0.5 in
20:04 7.5 °F 6.8 °F 1007.7 in WSW 19.5 mph 32.2 mph 95 % 0.8 in
20:10 7.5 °F 6.8 °F 1007.7 in SW 20.9 mph 27.4 mph 95 % 1.3 in
20:16 7.5 °F 6.8 °F 1007.7 in SW 20.9 mph 32.2 mph 95 % 1.5 in
20:24 7.6 °F 6.9 °F 1007.7 in SSW 30.6 mph 32.2 mph 95 % 1.5 in
20:30 7.7 °F 6.9 °F 1007.7 in West 22.7 mph 35.4 mph 95 % 1.5 in
20:36 7.8 °F 7.0 °F 1007.7 in SSW 20.9 mph 33.8 mph 95 % 1.3 in
20:42 7.8 °F 7.0 °F 1007.7 in WSW 19.5 mph 29.0 mph 95 % 1.5 in
20:54 7.8 °F 7.2 °F 1007.7 in SSW 17.7 mph 27.4 mph 96 % 1.5 in
21:04 7.9 °F 7.3 °F 1007.7 in SW 28.8 mph 32.2 mph 96 % 1.5 in
21:10 8.1 °F 7.5 °F 1008.0 in West 14.3 mph 29.0 mph 96 % 1.3 in
21:22 8.1 °F 7.5 °F 1007.7 in SW 24.1 mph 24.1 mph 96 % 1.5 in
21:28 8.1 °F 7.5 °F 1007.7 in WSW 20.9 mph 22.5 mph 96 % 1.5 in
21:34 8.1 °F 7.5 °F 1007.7 in SW 19.5 mph 24.1 mph 96 % 1.8 in
21:40 8.2 °F 7.6 °F 1007.7 in SW 17.7 mph 32.2 mph 96 % 1.5 in
21:46 8.3 °F 7.7 °F 1007.7 in SW 16.3 mph 35.4 mph 96 % 1.5 in
21:48 8.3 °F 7.7 °F 1007.7 in WSW 27.4 mph 30.6 mph 96 % 1.5 in
21:49 8.2 °F 7.6 °F 1007.7 in WSW 16.3 mph 29.0 mph 96 % 1.5 in
21:50 8.3 °F 7.7 °F 1007.7 in WSW 25.9 mph 27.4 mph 96 % 1.5 in
21:52 8.3 °F 7.7 °F 1007.7 in SSW 27.4 mph 29.0 mph 96 % 1.5 in
21:54 8.3 °F 7.7 °F 1007.7 in SW 17.7 mph 29.0 mph 96 % 1.5 in
21:58 8.4 °F 7.6 °F 1007.7 in SW 19.5 mph 30.6 mph 95 % 1.5 in
22:00 8.4 °F 7.6 °F 1007.7 in WSW 9.7 mph 32.2 mph 95 % 1.5 in
22:08 8.4 °F 7.6 °F 1007.7 in WSW 38.5 mph 38.6 mph 95 % 1.3 in
22:10 8.5 °F 7.7 °F 1007.7 in WSW 17.7 mph 38.6 mph 95 % 1.3 in
22:16 8.5 °F 7.7 °F 1007.7 in West 13.0 mph 24.1 mph 95 % 0.8 in
22:22 8.6 °F 7.8 °F 1007.3 in WSW 17.7 mph 40.2 mph 95 % 0.5 in
22:24 8.7 °F 7.9 °F 1007.7 in WSW 22.7 mph 35.4 mph 95 % 0.5 in
22:26 8.7 °F 7.9 °F 1007.7 in West 17.7 mph 29.0 mph 95 % 0.5 in
22:28 8.7 °F 7.9 °F 1007.7 in WSW 19.5 mph 27.4 mph 95 % 0.5 in
22:34 8.7 °F 7.9 °F 1007.7 in SSW 13.0 mph 20.9 mph 95 % 0.3 in
22:40 8.7 °F 7.9 °F 1007.7 in West 6.4 mph 22.5 mph 95 % 0.5 in
22:46 8.7 °F 7.9 °F 1007.7 in WSW 19.5 mph 30.6 mph 95 % 0.5 in
22:56 8.8 °F 8.0 °F 1007.7 in SW 16.3 mph 29.0 mph 95 % 0.5 in
22:58 8.8 °F 8.0 °F 1007.7 in SW 20.9 mph 22.5 mph 95 % 0.5 in
23:08 8.9 °F 8.1 °F 1007.7 in SW 22.7 mph 33.8 mph 95 % 0.5 in
23:16 8.9 °F 8.1 °F 1008.0 in SW 13.0 mph 22.5 mph 95 % 0.5 in
23:22 8.9 °F 8.1 °F 1008.0 in WNW 9.7 mph 24.1 mph 95 % 0.5 in
23:32 9.0 °F 8.2 °F 1008.0 in SW 17.7 mph 29.0 mph 95 % 0.5 in
23:38 9.0 °F 8.1 °F 1007.7 in WSW 27.4 mph 27.4 mph 94 % 0.5 in
23:44 9.1 °F 8.2 °F 1008.0 in SW 20.9 mph 22.5 mph 94 % 0.0 in
23:50 9.0 °F 8.1 °F 1007.7 in SW 14.3 mph 29.0 mph 94 % 0.3 in
23:56 9.0 °F 8.1 °F 1008.0 in WSW 14.3 mph 25.7 mph 94 % 0.3 in
Meteo18
Compliments of Weather Underground - 4 mb

Script developed by  Jim McMurry - jmcmurry@mwt.net Adapted for the template by  Wim van der Kuil - Leuven-Template.eu

You find our weather info also at:

European Weather Network

Weather Underground

Equipment we use:

Weather-station
Davis Vue

Weather-program
Meteobridge

Weather-server
Raspberry PI 2 B+

Provider
1 and 1

Davis Vue

Meteobridge

Raspberry PI 2 B+

1 and 1